, CA

(GMT )
Point Mugu

Weather History for KNTD - January, 2013

Change the Weather History Date:

Friday, January 25, 2013

  Actual Average Record
Temperature  
Mean Temperature 60 °F -  
Max Temperature 64 °F 61 °F 82 °F (2015)
Min Temperature 56 °F 43 °F 35 °F (2007)
Degree Days  
Heating Degree Days 5    
Growing Degree Days 10 (Base 50)    
Moisture  
Dew Point 56 °F    
Average Humidity 82    
Maximum Humidity 100    
Minimum Humidity 59    
Precipitation  
Precipitation 0.24 in - - ()
Sea Level Pressure  
Sea Level Pressure 30.05 in    
Wind  
Wind Speed 10 mph (NE)    
Max Wind Speed 17 mph    
Max Gust Speed 30 mph    
Visibility 6 miles    
Events Rain    
Averages and records for this station are not official NWS values.
T = Trace of Precipitation, MM = Missing Value Source: NWS Daily Summary

Daily Weather History Graph

Daily Weather History Graph

Search for Another Location

Airport or City:

Trip Planner

Search our weather history database for the weather conditions in past years. The results will help you decide how hot, cold, wet, or windy it might be!

Date:

Astronomy

Jan. 25, 2013 Rise Set
Actual Time 6:57 AM PST 5:20 PM PST
Civil Twilight 6:31 AM PST 5:46 PM PST
Nautical Twilight 6:01 AM PST 6:17 PM PST
Astronomical Twilight 5:31 AM PST 6:46 PM PST
Moon 4:21 PM PST (1/25) 5:40 AM PST (1/25)
Length of Visible Light 11h 15m
Length of Day
10h 22m
Waxing Gibbous, 98% of the Moon is Illuminated
Jan 25
Waxing Gibbous
Jan 26
Full
Feb 3
Last Quarter
Feb 9
New
Feb 17
First Quarter

Hourly Weather History & Observations

Time (PST) Temp. Dew Point Humidity Pressure Visibility Wind Dir Wind Speed Gust Speed Precip Events Conditions
12:30 AM - - N/A% - - North - - N/A   Unknown
12:45 AM - - N/A% - - North - - N/A   Unknown
12:54 AM 61.0 °F 57.9 °F 90% 30.12 in - NE 5.8 mph - 0.00 in   Mostly Cloudy
1:54 AM 63.0 °F 57.0 °F 81% 30.12 in - ENE 8.1 mph - N/A   Overcast
2:30 AM - - N/A% - - North - - N/A   Unknown
2:54 AM 63.0 °F 57.0 °F 81% 30.09 in - ENE 13.8 mph - N/A   Partly Cloudy
3:54 AM 63.0 °F 57.0 °F 81% 30.07 in - ENE 11.5 mph - N/A   Mostly Cloudy
4:54 AM 64.0 °F 57.9 °F 80% 30.06 in - ENE 13.8 mph - N/A   Overcast
5:35 AM 64.4 °F 57.2 °F 77% 30.05 in 6.0 mi ENE 13.8 mph 21.9 mph 0.00 in Rain Light Rain
5:54 AM 63.0 °F 57.0 °F 81% 30.06 in 6.0 mi East 17.3 mph 23.0 mph 0.01 in Rain Light Rain
6:17 AM 64.4 °F 59.0 °F 83% 30.07 in 6.0 mi ENE 17.3 mph - 0.00 in Rain Light Rain
6:54 AM 64.0 °F 49.8 °F 60% 30.07 in 7.0 mi East 17.3 mph - 0.00 in   Overcast
7:03 AM 64.4 °F 50.0 °F 59% 30.07 in 7.0 mi ENE 9.2 mph 21.9 mph 0.00 in   Overcast
7:54 AM 64.0 °F 49.8 °F 60% 30.08 in 7.0 mi East 17.3 mph 27.6 mph 0.00 in   Overcast
8:44 AM 64.4 °F 50.0 °F 59% 30.10 in 6.0 mi ENE 13.8 mph 20.7 mph 0.00 in Rain Light Rain
8:54 AM 64.0 °F 50.7 °F 62% 30.11 in 6.0 mi ENE 11.5 mph 29.9 mph 0.00 in   Drizzle
9:10 AM 64.4 °F 50.0 °F 59% 30.10 in 6.0 mi ENE 5.8 mph 19.6 mph 0.00 in Rain Light Rain
9:54 AM 64.0 °F 49.6 °F 59% 30.12 in 6.0 mi ENE 9.2 mph - 0.00 in   Overcast
10:00 AM - - N/A% - - North - - N/A   Unknown
10:54 AM 60.1 °F 54.0 °F 80% 30.13 in 5.0 mi ENE 9.2 mph 25.3 mph 0.00 in Rain Light Rain
11:15 AM - - N/A% - - North - - N/A   Unknown
11:16 AM 59.0 °F 57.2 °F 94% 30.12 in 2.5 mi ENE 6.9 mph - 0.00 in Rain Light Rain
11:54 AM 57.9 °F 57.9 °F 100% 30.10 in 4.0 mi NNE 8.1 mph - 0.03 in   Overcast
12:54 PM 60.1 °F 57.9 °F 93% 30.04 in 7.0 mi NE 10.4 mph 17.3 mph 0.00 in   Overcast
1:54 PM 62.1 °F 59.0 °F 90% 30.03 in - ENE 9.2 mph - N/A   Overcast
1:57 PM 62.6 °F 59.0 °F 88% 30.03 in 7.0 mi ENE 8.1 mph - N/A   Overcast
2:54 PM 63.0 °F 55.0 °F 75% 30.03 in 7.0 mi NE 8.1 mph - N/A   Overcast
3:03 PM 62.6 °F 57.2 °F 82% 30.01 in 7.0 mi ENE 10.4 mph - 0.00 in Rain Light Rain
3:54 PM 60.8 °F 55.2 °F 82% 30.01 in 5.0 mi NE 6.9 mph - 0.02 in Rain Light Rain
4:54 PM 61.9 °F 55.4 °F 79% 30.00 in 3.0 mi East 6.9 mph - 0.04 in Rain Light Rain
5:33 PM 60.8 °F 55.4 °F 82% 30.00 in 7.0 mi NE 5.8 mph - 0.01 in Rain Light Rain
5:54 PM 60.1 °F 55.4 °F 85% 30.01 in 7.0 mi NE 5.8 mph - 0.11 in Rain Light Rain
6:26 PM 60.8 °F 57.2 °F 88% 30.00 in 7.0 mi North 4.6 mph - 0.00 in   Overcast
6:54 PM 59.0 °F 59.0 °F 100% 30.01 in 7.0 mi North 4.6 mph - 0.01 in   Overcast
7:20 PM 59.0 °F 59.0 °F 100% 30.00 in 6.0 mi NNW 6.9 mph - 0.00 in Rain Light Rain
7:54 PM 56.5 °F 54.3 °F 92% 30.00 in 7.0 mi NNW 4.6 mph - 0.02 in Rain Light Rain
8:54 PM 59.0 °F 57.2 °F 94% 29.99 in 7.0 mi NW 8.1 mph - 0.00 in   Light Drizzle
9:54 PM 60.1 °F 55.9 °F 86% 30.00 in 6.0 mi NE 4.6 mph - 0.00 in   Light Drizzle
10:54 PM 56.8 °F 54.3 °F 91% 29.99 in 7.0 mi Variable 5.8 mph - 0.00 in   Light Drizzle
11:54 PM 59.0 °F 59.0 °F 100% 29.98 in - NE 9.2 mph - N/A   Overcast